Torna al catalogo

FENGYUN 1C DEB

AttivoPO
NORAD 31955·DEBRIS·🇨🇳 China

Lanciato May 10, 1999 da Taiyuan Satellite Launch Center

Loading…

Prossimi Passaggi (prossime 24 ore)

TLE

AggiornatoSource: Space-Track

Epoca: Sep 13, 2026, 14:36 UTC

1 31955U 99025CNG 26256.60869294  .00006800  00000-0  11727-2 0  9997
2 31955  99.2621 173.8253 0043923  61.6229  59.0202 14.68245325  5867

Traccia FENGYUN 1C DEB in tempo reale con AllMySat

Download on the App Store